Weather History for Lakeview AWS, OR

Change the Weather History Date:

Wednesday, December 4, 2013

  Actual Average Record
Temperature  
Mean Temperature 10 °F -  
Max Temperature 14 °F 42 °F 67 °F (1939)
Min Temperature 6 °F 24 °F 2 °F (1948)
Degree Days  
Heating Degree Days 55    
Moisture  
Dew Point 3 °F    
Average Humidity 79    
Maximum Humidity 85    
Minimum Humidity 62    
Precipitation  
Precipitation 0.00 in - - ()
Sea Level Pressure  
Sea Level Pressure 29.98 in    
Wind  
Wind Speed 14 mph (North)    
Max Wind Speed 20 mph    
Max Gust Speed 24 mph    
Visibility 10 miles    
Events      
Averages and records for this station are not official NWS values.
T = Trace of Precipitation, MM = Missing Value Source: NWS Daily Summary

Daily Weather History Graph

Daily Weather History Graph

Search for Another Location

Airport:

Trip Planner

Search our weather history database for the weather conditions in past years. The results will help you decide how hot, cold, wet, or windy it might be!

Date:

Astronomy

Dec. 04, 2013 Rise Set
Actual Time 7:13 AM PST 4:29 PM PST
Civil Twilight 6:42 AM PST 5:01 PM PST
Nautical Twilight 6:07 AM PST 5:36 PM PST
Astronomical Twilight 5:33 AM PST 6:10 PM PST
Moon 8:46 AM PST (12/4) 6:47 PM PST (12/4)
Length of Visible Light 10h 18m
Length of Day
9h 15m
Waxing Crescent, 5% of the Moon is Illuminated
Dec 4
Waxing Crescent
Dec 9
First Quarter
Dec 17
Full
Dec 25
Last Quarter
Jan 1
New

Hourly Weather History & Observations

Time (PST) Temp. Windchill Dew Point Humidity Pressure Visibility Wind Dir Wind Speed Gust Speed Precip Events Conditions
12:15 AM 8.6 °F -9.5 °F 3.2 °F 79% 29.96 in 10.0 mi North 17.3 mph - N/A   Clear
12:35 AM 8.6 °F -6.3 °F 3.2 °F 79% 29.98 in 10.0 mi North 11.5 mph 21.9 mph N/A   Clear
12:55 AM 8.6 °F -8.3 °F 3.2 °F 79% 29.97 in 10.0 mi North 15.0 mph - N/A   Mostly Cloudy
1:15 AM 8.6 °F -8.9 °F 3.2 °F 79% 29.96 in 10.0 mi North 16.1 mph 20.7 mph N/A   Overcast
1:35 AM 8.6 °F -8.9 °F 3.2 °F 79% 29.95 in 10.0 mi North 16.1 mph - N/A   Partly Cloudy
1:55 AM 8.6 °F -10.5 °F 3.2 °F 79% 29.95 in 10.0 mi North 19.6 mph 24.2 mph N/A   Clear
2:15 AM 8.6 °F -7.0 °F 3.2 °F 79% 29.97 in 10.0 mi North 12.7 mph 20.7 mph N/A   Clear
2:35 AM 8.6 °F -8.9 °F 5.0 °F 85% 29.98 in 10.0 mi North 16.1 mph 19.6 mph N/A   Scattered Clouds
2:55 AM 8.6 °F -7.7 °F 3.2 °F 79% 29.98 in 10.0 mi North 13.8 mph - N/A   Mostly Cloudy
3:15 AM 8.6 °F -7.7 °F 3.2 °F 79% 29.98 in 10.0 mi North 13.8 mph - N/A   Mostly Cloudy
3:35 AM 8.6 °F -7.7 °F 3.2 °F 79% 29.98 in 10.0 mi North 13.8 mph 19.6 mph N/A   Mostly Cloudy
3:55 AM 8.6 °F -7.0 °F 5.0 °F 85% 29.98 in 10.0 mi North 12.7 mph - N/A   Partly Cloudy
4:15 AM 8.6 °F -7.0 °F 5.0 °F 85% 29.98 in 10.0 mi North 12.7 mph - N/A   Clear
4:35 AM 8.6 °F -7.7 °F 3.2 °F 79% 29.97 in 10.0 mi North 13.8 mph 17.3 mph N/A   Clear
4:55 AM 8.6 °F -7.0 °F 5.0 °F 85% 29.97 in 10.0 mi North 12.7 mph - N/A   Clear
5:15 AM 8.6 °F -8.3 °F 5.0 °F 85% 29.97 in 10.0 mi North 15.0 mph - N/A   Clear
5:35 AM 8.6 °F -7.7 °F 3.2 °F 79% 29.98 in 10.0 mi North 13.8 mph - N/A   Clear
5:55 AM 8.6 °F -6.3 °F 3.2 °F 79% 29.98 in 10.0 mi North 11.5 mph - N/A   Clear
6:15 AM 6.8 °F -6.9 °F 1.4 °F 79% 29.99 in 10.0 mi North 9.2 mph - N/A   Partly Cloudy
6:35 AM 6.8 °F -5.9 °F -0.4 °F 72% 29.99 in 10.0 mi NNE 8.1 mph - N/A   Clear
6:55 AM 6.8 °F -5.9 °F 3.2 °F 85% 29.99 in 10.0 mi NNE 8.1 mph - N/A   Partly Cloudy
7:15 AM 8.6 °F -5.5 °F 1.4 °F 73% 30.00 in 10.0 mi North 10.4 mph - N/A   Scattered Clouds
7:35 AM 8.6 °F -6.3 °F 3.2 °F 79% 30.00 in 10.0 mi NNE 11.5 mph - N/A   Mostly Cloudy
7:55 AM 10.4 °F -4.8 °F 5.0 °F 79% 30.00 in 10.0 mi NNE 12.7 mph - N/A   Overcast
8:15 AM 12.2 °F -0.2 °F 5.0 °F 73% 30.00 in 10.0 mi NE 9.2 mph - N/A   Overcast
8:35 AM 14.0 °F -0.2 °F 5.0 °F 67% 30.01 in 10.0 mi NNE 12.7 mph 18.4 mph N/A   Overcast
8:55 AM 14.0 °F 1.2 °F 3.2 °F 62% 30.02 in 10.0 mi North 10.4 mph - N/A   Overcast